星链-4348 (STARLINK-4348 )

导读 | 豆包AI

STARLINK-4348是美国太空探索技术公司(SpaceX)在2022年7月11日发射的星链卫星,属于星链(Starlink)低轨互联网星座项目。星链项目旨在为全球提供高速低延迟宽带互联网服务,该卫星入轨后,进一步扩充了星链星座的部署规模,推动全球卫星互联网组网进程。

基本信息
目录编号:
53075
目录名称:
STARLINK-4348
国际标识:
2022-077AJ
轨道中心:
EARTH
卫星名称:
星链-4348
卫星全名:
星链-4348 (STARLINK-4348 )
卫星状态:
在轨 (已飞行1343 天)
发射日期:
2022-07-11 UTC
国别 :
美国 (US)
星等 :
--
轨道信息
数据来源 国际轨道数据
星历时间: 2026-03-15T00:00:02+0800
11小时前
查看轨道信息
半长轴: 6930.089km
偏心率: 0.0001555
轨道倾角: 97.603°
近地点辐角 82.364°
升交点赤经 255.088°
平近点角 339.604°
近地点: 550.874km
远地点: 553.03km
周期: 95.690分钟
每日圈数: 15.048549
详细信息
固有亮度:
5
最大亮度:
2.5
卫星平台:
Starlink v1.5
覆盖范围:
全球
运营商:
太空探索技术公司
运营商所在国:
美国
制造商(研发单位):
太空探索技术公司
制造商所在国:
美国
使用方式:
暂无
卫星简介
星链(Starlink)计划是由太空探索技术公司(SpaceX)提出的一个巨型低轨卫星互联网星座项目,计划在2019年至2024年间在太空搭建由约1.2万颗卫星组成的“星链”网络,其中1584颗将部署在地球上空550千米处的近地轨道,并从2020年开始工作。该卫星仍在工作。
2D轨道图
3D轨道图
轨道高度分析图
轨道倾角分析图
轨道综合分析图
查看轨道综合分析图